Regional Weather Roundup
Issued by NWS

Home | Current Version | Previous Version | Text Only | Print | Product List | Glossary On
Versions: 1 2 3 4 5 6 7 8 9 10 11 12 13 14 15 16 17 18 19 20 21 22 23 24 25 26 27 28 29 30 31 32 33 34 35 36 37 38 39 40 41 42 43 44 45 46 47 48 49 50
000
ASUS43 KLMK 270310
RWRKY
KENTUCKY REGIONAL WEATHER ROUNDUP
NATIONAL WEATHER SERVICE LOUISVILLE KY
1000 PM EST FRI DEC 26 2014

NOTE "FAIR" INDICATES FEW OR NO CLOUDS BELOW 12,000 FEET
WITH NO SIGNIFICANT WEATHER AND/OR OBSTRUCTIONS TO VISIBILITY.

KYZ001>023-026-027-061>063-070>075-270400-
WESTERN AND SOUTH CENTRAL KENTUCKY

CITY           SKY/WX    TMP DP  RH WIND       PRES   REMARKS
PADUCAH        CLOUDY    48  37  65 S7        30.16R
HENDERSON      MOCLDY    46  36  66 S7        30.16R
OWENSBORO      CLOUDY    45  38  76 SW6       30.17R
HOPKINSVILLE   CLOUDY    47  37  67 S6        30.18F
BOWLING GREEN  CLEAR     49  36  61 S9        30.20F
GLASGOW        CLOUDY    47  35  62 S5        30.21S
$$

KYZ024-025-028>034-038-045-046-053-270400-
NORTH CENTRAL KENTUCKY

CITY           SKY/WX    TMP DP  RH WIND       PRES   REMARKS
LOUISVILLE/SDF MOCLDY    48  34  58 S3        30.17S
LOUISVILLE/LOU PTCLDY    45  34  65 S3        30.18S
FORT KNOX      PTCLDY    45  35  67 S8        30.16S
$$

KYZ035>037-039>044-047>052-055>060-089>105-270400-
NORTHEAST KENTUCKY

CITY           SKY/WX    TMP DP  RH WIND       PRES   REMARKS
LEXINGTON      CLOUDY    45  33  63 S8        30.19F
COVINGTON      MOCLDY    44  32  62 S6        30.17S
FRANKFORT      PTCLDY    47  32  56 S6        30.17F
$$

KYZ054-064>069-076>088-106>120-270400-
SOUTHEAST KENTUCKY

CITY           SKY/WX    TMP DP  RH WIND       PRES   REMARKS
JACKSON        CLOUDY    47  27  45 W6        30.22R
LONDON         CLOUDY    46  28  49 CALM      30.23R
SOMERSET       CLOUDY    43  32  65 S3        30.25S
MIDDLESBORO    CLOUDY    41  35  79 CALM      30.25S
MONTICELLO     CLOUDY    45  36  70 CALM      30.26R
$$




USA.gov is the U.S. government's official web portal to all federal, state and local government web resources and services.